Location: Earls Croome
(52.0667°N, 2.2000°W)
Time: 08:26:03
(UTC+00:00)

Cosmos 1408 Rocket - Pass Details

Date: 17 November 2019
Orbit: 602 x 630 km, 82.6° (Epoch: 05 December)

Event Time Altitude Azimuth Distance (km) Brightness Sun altitude
Rises 06:27:16 0° 213° (SSW) 2,847 6.8 -9.8°
Reaches altitude 10° 06:29:37 10° 223° (SW) 1,950 5.9 -9.5°
Maximum altitude 06:33:35 35° 289° (WNW) 995 4.1 -8.9°
Drops below altitude 10° 06:37:36 10° 356° (N) 1,976 5.9 -8.3°
Sets 06:40:00 0° 5° (N) 2,891 6.8 -8.0°
